Hourly Data Report for July 27, 2004

TORONTO CITY
ONTARIO

43°40'00.000" N
79°24'00.000" W
112.50 m
6158355
71508
XTO

Download Data

Hourly Data (July 2004)
Hourly Data Report for July 27, 2004
TIME
LST
Temp Definition
°C
Dew Point Definition
°C
Rel Hum Definition
%
Precip. Amount Definition
mm

Wind Dir Definition
10's deg

Wind Spd Definition
km/h
Visibility Definition
km
Stn Press Definition
kPa
Hmdx Definition


Wind Chill Definition


Weather Definition


00:00 19.5 15.0 75   LegendMM LegendMM LegendMM 100.40     LegendNANA
01:00 18.2 15.9 86   LegendMM LegendMM LegendMM 100.36     LegendNANA
02:00 16.6 15.0 90   LegendMM LegendMM LegendMM 100.31     LegendNANA
03:00 15.9 14.8 93   LegendMM LegendMM LegendMM 100.27     LegendNANA
04:00 16.8 16.3 97   LegendMM LegendMM LegendMM 100.27     LegendNANA
05:00 17.7 17.3 98   LegendMM LegendMM LegendMM 100.30     LegendNANA
06:00 17.8 17.4 98   LegendMM LegendMM LegendMM 100.25     LegendNANA
07:00 17.6 17.1 97   LegendMM LegendMM LegendMM 100.27     LegendNANA
08:00 17.8 17.1 96   LegendMM LegendMM LegendMM 100.29     LegendNANA
09:00 17.9 17.2 96   LegendMM LegendMM LegendMM 100.25     LegendNANA
10:00 18.2 17.6 96   LegendMM LegendMM LegendMM 100.23     LegendNANA
11:00 17.7 17.0 96   LegendMM LegendMM LegendMM 100.22     LegendNANA
12:00 17.9 17.0 94   LegendMM LegendMM LegendMM 100.19     LegendNANA
13:00 18.6 17.4 93   LegendMM LegendMM LegendMM 100.13     LegendNANA
14:00 18.7 17.4 92   LegendMM LegendMM LegendMM 100.08     LegendNANA
15:00 18.6 17.6 94   LegendMM LegendMM LegendMM 100.08     LegendNANA
16:00 18.7 17.7 94   LegendMM LegendMM LegendMM 100.05     LegendNANA
17:00 18.5 17.6 94   LegendMM LegendMM LegendMM 100.04     LegendNANA
18:00 18.8 17.4 92   LegendMM LegendMM LegendMM 100.02     LegendNANA
19:00 18.4 17.4 94   LegendMM LegendMM LegendMM 100.03     LegendNANA
20:00 18.2 17.6 96   LegendMM LegendMM LegendMM 100.03     LegendNANA
21:00 18.5 17.9 96   LegendMM LegendMM LegendMM 100.09     LegendNANA
22:00 18.2 17.8 98   LegendMM LegendMM LegendMM 100.07     LegendNANA
23:00 17.9 17.5 98   LegendMM LegendMM LegendMM 100.05     LegendNANA

Notes on Data Quality.

Legend

  • E = Estimated
  • M = Missing
  • NA = Not Available*
  • [empty] = Indicates an unobserved value
Date modified: